Вернуться в каталог

STARLINK-3619

АктивенСвязьVLEO
NORAD 51787·PAYLOAD·🇺🇸 United States

Запущен Feb 25, 2022 с Vandenberg Space Force Base

Loading…

Ближайшие Пролёты (ближайшие 24 часа)

TLE

СвежийSource: CelesTrak SupGP

Эпоха: Sep 15, 2026, 01:08 UTC

1 51787C 22017V   26258.04770833 -.00029617  00000+0 -87502-3 0  2584
2 51787  53.1586 202.8621 0001412  84.8843 322.7064 15.34406058    13

Отслеживайте STARLINK-3619 в реальном времени с AllMySat

Download on the App Store